This is the latest recevied weather packets stored in our database for station/object VE3DVC. If no packets are shown the sender has not sent any weather packets the latest 10 day(s).
| Time | Temp. | Humidity | Pressure | Rain* | Wind** | Luminosity | Snow |
|---|---|---|---|---|---|---|---|
| 1777402664 | 17.78° C | 81% | 1010.5 hPa | 0 mm | - | - | - |
| 1777401944 | 17.22° C | 82% | 1010.5 hPa | 0 mm | - | - | - |
| 1777401223 | 16.67° C | 82% | 1010.6 hPa | 0 mm | - | - | - |
| 1777400125 | 16.11° C | 83% | 1010.5 hPa | 0 mm | - | - | - |
| 1777399404 | 15.56° C | 84% | 1010.4 hPa | 0 mm | - | - | - |
| 1777398685 | 15.56° C | 83% | 1010.3 hPa | 0 mm | - | - | - |
| 1777397965 | 15.56° C | 83% | 1010.3 hPa | 0 mm | - | - | - |
| 1777397245 | 15.56° C | 83% | 1010.4 hPa | 0 mm | - | - | - |
| 1777396524 | 15.56° C | 82% | 1010.2 hPa | 0 mm | - | - | - |
| 1777395805 | 15° C | 83% | 1010.3 hPa | 0 mm | - | - | - |
| 1777395085 | 15° C | 83% | 1010.3 hPa | 0 mm | - | - | - |
| 1777394365 | 15° C | 84% | 1010.3 hPa | 0 mm | - | - | - |
| 1777393645 | 14.44° C | 84% | 1010.4 hPa | 0 mm | - | - | - |
| 1777392925 | 14.44° C | 84% | 1010.3 hPa | 0 mm | - | - | - |
| 1777392205 | 14.44° C | 84% | 1010.4 hPa | 0 mm | - | - | - |
| 1777391485 | 14.44° C | 83% | 1010.5 hPa | 0 mm | - | - | - |
| 1777390765 | 15° C | 82% | 1010.6 hPa | 0 mm | - | - | - |
| 1777390045 | 15° C | 83% | 1010.4 hPa | 0 mm | - | - | - |
| 1777389325 | 14.44° C | 84% | 1010.6 hPa | 0 mm | - | - | - |
| 1777388605 | 13.89° C | 84% | 1010.5 hPa | 0 mm | - | - | - |
| 1777387885 | 13.89° C | 85% | 1010.4 hPa | 0 mm | - | - | - |
| 1777386772 | 13.89° C | 86% | 1010 hPa | 0 mm | - | - | - |
| 1777386051 | 13.33° C | 87% | 1010.2 hPa | 0 mm | - | - | - |
| 1777385331 | 12.78° C | 88% | 1009.9 hPa | 0 mm | - | - | - |
| 1777384611 | 12.78° C | 88% | 1009.9 hPa | 0 mm | - | - | - |
* Rain latest hour (hover to see other rain measurements)
** Current wind speed in m/s (hover to see current wind gust speed)